Flag for Greece Weather past 2 weeks in Nea Smyrni, Greece

Now
57 °F

Passing clouds.


Feels Like: 54 °F
Forecast: 50 / 61 °F
Wind: 16 mph from West

Location: Eleftherios Venizelos International Airport

Current Time: Mar 3, 2015 at 5:16:17 AM

Latest Report: Mar 3, 2015 at 4:50 AM


Visibility: N/A

Pressure: 29.95 "Hg

Humidity: 59%

Dew point: 43 °F

Location of Nea SmyrniLocation

Historic Weather in Nea Smyrni — Graph

°F

Nea Smyrni temperature yesterday

Maximum temperature yesterday: 63 °F (at 1:20 PM)
Minimum temperature yesterday: 37 °F (at 6:20 AM)
Average temperature yesterday: 52 °F

Past Weeks' High & Low Weather Summary

 TemperatureHumidityPressure
High63 °F (Feb 25, 2:20 PM)93% (Mar 1, 5:20 AM)30.48 "Hg (Mar 1, 5:20 AM)
Low32 °F (Feb 18, 10:20 PM)29% (Feb 19, 3:50 PM)29.65 "Hg (Feb 27, 3:50 PM)
Average49 °F69%30.03 "Hg
* Reported Feb 16 3:50 AM — Mar 3 3:50 AM, Nea Smyrni, Weather by CustomWeather, © 2015

Note: Actual official high and low records may vary slightly from our data, if they occured in-between our weather recording intervals... More about our weather records

Advertising

Nea Smyrni weather history for previous 24 hours

 ConditionsComfort  
Time TempWeatherWind HumidityBarometerVisibility
3:50 AM
Tue, Mar 3
55 °FPassing clouds.18 mph59%29.98 "HgN/A
3:20 AM55 °FPassing clouds.16 mph59%29.98 "HgN/A
2:50 AM55 °FPassing clouds.17 mph59%29.98 "HgN/A
2:20 AM55 °FPassing clouds.8 mph59%29.98 "HgN/A
1:50 AM55 °FPassing clouds.6 mph59%29.98 "HgN/A
1:20 AM54 °FPassing clouds.12 mph67%30.01 "HgN/A
12:50 AM55 °FPassing clouds.9 mph63%30.01 "HgN/A
12:20 AM55 °FPassing clouds.7 mph63%30.01 "HgN/A
11:50 PM
Mon, Mar 2
55 °FPassing clouds.9 mph63%30.01 "HgN/A
11:20 PM54 °FPassing clouds.12 mph72%30.01 "HgN/A
10:50 PM54 °FPassing clouds.9 mph72%30.01 "HgN/A
9:50 PM54 °FPassing clouds.7 mph77%30.04 "HgN/A
8:50 PM54 °FPassing clouds.5 mph77%30.04 "HgN/A
8:20 PM55 °FPassing clouds.13 mph77%30.04 "HgN/A
7:50 PM55 °FPassing clouds.15 mph77%30.04 "HgN/A
7:20 PM54 °FPassing clouds.12 mph77%30.04 "HgN/A
5:50 PM57 °FScattered clouds.15 mph67%30.04 "HgN/A
5:20 PM59 °FScattered clouds.16 mph55%30.04 "HgN/A
4:20 PM61 °FPassing clouds.15 mph52%30.04 "HgN/A
3:50 PM61 °FPassing clouds.10 mph55%30.04 "HgN/A
3:20 PM61 °FPassing clouds.14 mph59%30.04 "HgN/A
2:50 PM63 °FScattered clouds.14 mph49%30.04 "HgN/A
2:20 PM63 °FScattered clouds.14 mph49%30.04 "HgN/A
1:50 PM63 °FScattered clouds.13 mph49%30.07 "HgN/A
1:20 PM63 °FScattered clouds.13 mph49%30.07 "HgN/A
12:50 PM61 °FScattered clouds.12 mph52%30.07 "HgN/A
12:20 PM61 °FScattered clouds.10 mph52%30.07 "HgN/A
11:50 AM61 °FScattered clouds.1 mph52%30.09 "HgN/A
11:20 AM59 °FPassing clouds.3 mph55%30.09 "HgN/A
10:50 AM57 °FPassing clouds.5 mph59%30.09 "HgN/A
10:20 AM57 °FPassing clouds.3 mph63%30.09 "HgN/A
9:50 AM54 °FPassing clouds.3 mph72%30.09 "HgN/A
9:20 AM52 °FPassing clouds.2 mph77%30.09 "HgN/A
8:50 AM50 °FPassing clouds.2 mph82%30.09 "HgN/A
8:20 AM46 °FPassing clouds.No wind82%30.09 "HgN/A
7:50 AM45 °FPassing clouds.2 mph81%30.09 "HgN/A
7:20 AM41 °FPassing clouds.1 mph87%30.09 "HgN/A
6:50 AM41 °FPassing clouds.No wind87%30.07 "HgN/A
6:20 AM37 °FPassing clouds.3 mph93%30.07 "HgN/A
5:50 AM43 °FPassing clouds.2 mph87%30.07 "HgN/A
5:20 AM39 °FPassing clouds.No wind87%30.07 "HgN/A
Weather by CustomWeather, © 2015

See weather overviewHow to use our weather pages